Lid_Strength_Index
2 4 5 5 11 12 14 11 9 10 9 6 5 6 7 6 8 11 3 1 0 1 0 -0 -1 -1 -1 -1 -1 -1 -1 -1 -1 -1 -1 -1 -1 -1 -1 -1 -1 -1 -2 -1 -1 -2 -2 -1 -1
4 5 7 8 13 16 13 9 10 8 7 6 5 5 6 7 4 4 3 1 0 0 0 -0 -1 -1 -1 -1 -1 -1 -1 -1 -1 -1 -1 -1 -1 -1 -1 -1 -1 -1 -1 -2 -2 -2 -2 -1 -1
2 3 8 12 13 14 13 9 8 6 5 6 6 5 5 6 3 4 1 1 0 1 0 -0 -1 -1 -1 -1 -1 -1 -1 -1 -1 -1 -1 -1 -1 -1 -1 -1 -1 -2 -2 -2 -2 -1 -2 -1 -1
4 5 7 14 14 11 10 8 7 7 6 5 5 6 4 2 3 2 1 0 1 1 0 -0 -1 -1 -1 -1 -1 -1 -1 -1 -1 -1 -1 -1 -1 -1 -1 -1 -2 -2 -2 -2 -2 -2 -2 -1 -1
5 8 13 15 13 9 8 7 7 7 7 7 5 6 5 2 2 1 1 1 1 1 0 -0 -1 -1 -1 -1 -1 -1 -1 -1 -1 -1 -1 -1 -1 -1 -1 -2 -2 -2 -2 -2 -2 -2 -2 -2 -2
8 9 15 15 12 9 8 8 8 8 7 7 6 6 5 2 2 2 1 1 0 1 0 0 -1 -1 -1 -1 -1 -1 -1 -1 -1 -1 -1 -1 -1 -1 -2 -2 -2 -2 -2 -2 -2 -2 -2 -2 -2
7 10 13 13 12 10 8 8 8 8 8 7 7 8 5 3 2 2 2 2 1 0 0 0 -0 -0 -1 -1 -1 -1 -1 -1 -1 -1 -1 -1 -1 -1 -2 -2 -2 -2 -2 -2 -2 -2 -2 -2 -2
6 8 10 10 11 11 7 7 8 8 8 5 6 8 7 3 2 3 2 2 1 1 1 0 0 0 0 -0 -1 -1 -1 -1 -1 -1 -1 -1 -1 -1 -2 -1 -2 -2 -2 -2 -2 -2 -2 -1 -1
6 12 12 10 10 9 7 8 6 5 7 6 6 5 3 3 2 4 4 3 2 1 1 0 0 0 0 -0 -0 -1 -1 -1 -1 -1 -1 -1 0 0 -0 -1 -1 -2 -2 -2 -2 -1 -1 -1 -1
9 12 11 7 7 8 7 7 5 6 7 6 6 3 2 2 4 4 5 5 3 2 2 1 1 0 0 -0 0 0 -0 -0 -0 -0 0 0 1 1 -0 -1 -2 -2 -2 -1 -1 -1 -1 -1 0
8 11 8 7 6 5 6 6 5 7 7 6 6 5 3 3 3 3 3 4 3 2 1 1 1 1 0 0 0 -0 -0 0 -0 0 0 0 0 0 0 0 -0 0 -1 -0 -0 -0 -0 0 0
11 8 7 6 5 6 7 6 6 6 6 4 4 4 4 3 4 3 4 3 2 2 2 1 1 1 1 0 0 0 0 0 0 0 0 0 0 0 0 1 1 0 0 0 0 0 0 0 -0
10 10 9 8 6 6 5 7 7 6 5 4 3 3 4 4 4 4 5 4 4 3 2 1 1 1 1 1 0 0 0 0 0 0 1 1 0 1 2 2 1 0 0 0 0 0 0 0 0
9 8 8 8 9 8 7 6 6 6 4 4 4 4 4 5 4 4 4 5 3 2 2 2 1 1 0 1 1 1 0 0 1 1 1 1 1 1 2 3 2 1 1 0 0 1 1 1 0
9 12 10 8 7 8 8 10 8 5 4 5 5 4 4 4 5 4 3 3 4 3 2 2 1 1 1 1 1 1 1 0 1 1 1 1 2 2 2 2 3 1 0 1 1 1 1 1 1
12 12 15 11 8 7 8 11 8 6 6 6 5 5 4 4 4 4 4 3 2 3 2 1 1 1 1 1 1 1 0 1 1 1 0 1 1 2 1 2 2 2 0 1 1 1 1 1 2
13 15 14 12 9 9 9 10 7 6 6 6 5 5 4 4 4 4 3 3 2 2 2 3 2 1 1 1 1 1 1 1 0 0 1 0 1 1 1 1 1 1 1 1 2 2 2 3 3
15 14 13 13 11 9 10 10 9 7 6 6 5 5 4 4 4 3 3 2 2 2 2 2 3 1 1 1 1 1 2 3 3 2 1 0 1 1 1 1 2 1 2 2 2 3 2 2 2
11 12 13 11 9 10 11 11 10 8 9 8 6 5 5 5 3 3 3 3 2 2 2 2 2 2 2 2 3 4 4 3 2 1 1 1 0 1 1 1 1 1 2 2 2 2 2 3 2
11 12 13 11 9 10 11 11 10 9 9 8 8 7 5 5 4 4 3 3 3 3 2 2 2 2 2 2 2 2 2 2 1 1 1 0 0 1 1 1 2 2 2 2 2 2 3 2 2
12 13 13 12 10 10 11 13 11 9 8 8 7 6 5 5 5 4 4 4 3 3 3 2 2 2 2 2 2 2 2 2 2 2 2 1 1 1 1 1 2 1 1 2 2 3 2 3 3
13 9 10 11 13 16 11 17 13 11 10 9 8 7 6 5 4 4 4 4 3 3 2 2 2 2 2 1 2 2 3 3 3 2 1 1 1 1 1 1 1 1 1 2 3 1 2 3 4
11 8 9 10 12 15 14 16 15 12 12 10 9 7 6 6 5 4 4 4 4 3 3 2 2 2 2 2 2 2 3 2 2 2 2 2 2 1 1 1 1 1 2 2 2 2 2 3 3
7 9 9 10 13 17 14 13 15 13 12 10 8 7 7 6 6 4 5 4 5 3 3 2 2 2 2 2 2 2 3 3 3 3 2 2 2 2 1 1 1 1 2 1 1 2 2 2 3
9 12 18 19 18 17 11 13 13 11 9 9 9 8 6 6 6 5 4 4 5 4 5 3 2 3 2 2 2 2 2 2 3 3 2 2 2 3 2 1 1 2 1 1 1 2 2 2 3
11 12 18 21 19 16 11 15 12 8 6 6 6 6 6 7 6 5 4 4 5 4 4 4 3 3 2 2 2 2 2 2 2 2 2 2 2 2 1 1 1 1 1 1 2 2 2 2 2
11 13 10 14 13 17 15 12 9 8 8 8 8 7 7 7 6 5 5 5 5 5 4 4 4 3 2 2 2 2 2 3 2 2 2 2 2 1 1 1 1 1 2 1 2 2 2 2 2
9 9 15 15 21 21 16 14 14 12 11 9 9 8 8 7 6 6 6 5 4 4 4 3 4 3 3 2 2 2 2 2 2 1 2 2 2 1 1 2 2 2 2 2 2 2 2 2 2
12 13 13 14 16 20 20 16 11 11 10 10 9 8 8 7 6 6 6 5 4 4 4 4 3 3 3 3 2 2 2 2 2 2 2 1 1 1 1 2 2 2 2 2 2 2 2 2 2
10 12 13 17 18 16 18 16 9 9 8 8 8 7 7 6 6 5 5 5 5 4 4 4 3 3 3 2 2 2 2 2 2 3 3 2 2 2 2 2 2 2 1 2 2 2 2 2 2